Welcome, Guest. Please login or register.
Did you miss your activation email?

Username: Password:
Outdoor Wood Furnace Info - Statistics Center
General Statistics
Total Members: 8193
Total Posts: 75452
Total Topics: 7080
Total Categories: 6
Users Online: 6
Most Online: 165 - May 22, 2013, 12:42:02 PM
Online Today: 11
Average registrations per day: 6.70
Average posts per day: 22.77
Average topics per day: 2.64
Total Boards: 50
Latest Member: bluezilla
Average online per day: 25.01
Male to Female Ratio: 89.7:1
Top 10 Posters Top 10 Boards
slimjim 5133
mlappin 3752
Scott7m 3740
RSI 2787
willieG 1852
Roger2561 1549
hondaracer2oo4 1420
coolidge 1396
atvalaska 1275
MattyNH 1256
General Outdoor Furnace Discussion 29899
Plumbing 7292
Central Boiler 4592
General Discussion 4282
HeatMaster 3702
Portage & Main 3661
Fire Wood 3226
Home Made 2484
Equipment 2216
Electronics 2155
Top 10 Topics (by Replies) Top 10 Topics (by Views)
new heatmor and having huge issues 491
our wood stoves are horrible but epa thinks this is fine 344
Gasification wood boiler build 303
Almost 172
Wood Consumption vs. Application 144
TYPE of CHAIN SAWS USED 138
ProFab has some issues! 130
Ridgewood stoves 124
Global warming, climate change? Article 124
I'm impressed 123
Synergy Boilers? 578958
HELP! I hate my SHAVER! 466094
TAKE A STAND AGAINST MIDWEST (SYNERGY) BOILERS 444402
Synergy Boilers 98559
Gasification wood boiler build 58376
new heatmor and having huge issues 33703
Truth about Wood Doctor by president 30311
My homemade/modified forced air wood furnace 27958
Suggested Water Temperature on Boiler 27746
Used Hardy Stove info 24158
Top Topic Starters Most Time Online
coolidge 333
Roger2561 209
mlappin 108
slimjim 107
Scott7m 102
d5knapp 78
AirForcePOL 66
userdk 65
hondaracer2oo4 60
heat550 54
slimjim 89d 20h 18m
willieG 89d 16h 0m
RSI 45d 11h 20m
mlappin 35d 22h 27m
Scott7m 35d 21h 14m
koutsman 29d 13h 3m
MD20/20 26d 10h 54m
sceptre74 24d 20h 54m
CountryBoyJohn 20d 23h 41m
Roger2561 20d 4h 40m
Forum History (using forum time offset)
Yearly Summary New Topics New Posts New Members Most Online
* 2018 103 1328 549 54
* 2017 597 7391 3268 65
December 2017 70 940 259 42
November 2017 77 940 272 40
October 2017 66 673 305 48
September 2017 40 581 253 42
2017-09-01 0 5 9 21
2017-09-02 0 17 6 19
2017-09-03 1 21 7 22
2017-09-04 1 59 11 28
2017-09-05 0 32 13 25
2017-09-06 3 21 19 26
2017-09-07 2 27 13 25
2017-09-08 1 6 8 19
2017-09-09 1 7 6 18
2017-09-10 1 40 13 29
2017-09-11 0 11 6 25
2017-09-12 3 23 8 42
2017-09-13 2 32 12 26
2017-09-14 2 45 8 21
2017-09-15 0 18 14 24
2017-09-16 4 15 11 23
2017-09-17 2 18 3 23
2017-09-18 1 21 8 27
2017-09-19 2 14 12 22
2017-09-20 0 16 6 26
2017-09-21 2 5 7 20
2017-09-22 3 20 2 22
2017-09-23 3 21 8 20
2017-09-24 1 19 8 21
2017-09-25 0 4 9 22
2017-09-26 2 20 6 23
2017-09-27 0 9 6 19
2017-09-28 0 5 1 20
2017-09-29 2 13 4 23
2017-09-30 1 17 9 21
August 2017 50 619 275 31
July 2017 16 164 329 33
June 2017 28 227 264 54
May 2017 30 407 291 45
April 2017 40 748 290 60
March 2017 46 601 306 49
February 2017 43 569 241 65
January 2017 91 922 183 53
* 2016 546 5025 3090 75
* 2015 1317 11279 9513 67
December 2015 106 910 2179 40
November 2015 236 968 2620 60
October 2015 169 843 906 46
September 2015 42 202 593 35
August 2015 49 274 447 41
July 2015 35 353 449 53
June 2015 32 269 266 42
May 2015 66 519 364 46
2015-05-01 2 9 14 36
2015-05-02 1 1 8 31
2015-05-03 3 15 12 35
2015-05-04 4 22 16 34
2015-05-05 3 43 16 33
2015-05-06 0 16 16 33
2015-05-07 1 4 14 32
2015-05-08 3 19 15 28
2015-05-09 7 42 14 30
2015-05-10 1 20 8 35
2015-05-11 1 15 25 34
2015-05-12 1 12 8 32
2015-05-13 1 10 19 32
2015-05-14 0 16 8 46
2015-05-15 3 23 12 32
2015-05-16 2 27 5 30
2015-05-17 1 15 13 33
2015-05-18 2 13 13 31
2015-05-19 0 11 8 34
2015-05-20 2 20 8 29
2015-05-21 13 18 11 32
2015-05-22 0 8 19 30
2015-05-23 1 7 7 32
2015-05-24 0 6 10 30
2015-05-25 6 60 13 37
2015-05-26 2 15 10 34
2015-05-27 1 12 11 31
2015-05-28 0 8 13 33
2015-05-29 1 6 7 32
2015-05-30 2 12 6 30
2015-05-31 2 14 5 25
April 2015 92 795 418 39
March 2015 113 1670 400 46
February 2015 175 2072 445 56
January 2015 202 2404 426 67
* 2014 2461 21938 4588 110
* 2013 1171 11341 1091 165
December 2013 205 1813 294 78
November 2013 192 1828 102 74
October 2013 141 1460 116 55
September 2013 98 808 75 40
2013-09-01 2 13 1 28
2013-09-02 2 18 3 30
2013-09-03 3 27 2 21
2013-09-04 2 24 1 22
2013-09-05 3 21 1 22
2013-09-06 3 23 1 21
2013-09-07 4 25 3 25
2013-09-08 2 35 2 38
2013-09-09 2 24 5 35
2013-09-10 2 25 3 27
2013-09-11 3 27 2 27
2013-09-12 4 42 2 24
2013-09-13 1 8 2 25
2013-09-14 1 13 1 28
2013-09-15 11 24 6 38
2013-09-16 3 22 2 29
2013-09-17 2 16 2 32
2013-09-18 3 34 1 23
2013-09-19 2 37 2 34
2013-09-20 6 42 1 40
2013-09-21 1 19 3 24
2013-09-22 9 29 6 30
2013-09-23 5 31 4 31
2013-09-24 0 33 1 29
2013-09-25 4 39 4 29
2013-09-26 4 23 2 25
2013-09-27 6 51 3 36
2013-09-28 3 13 3 27
2013-09-29 1 30 2 31
2013-09-30 4 40 4 33
August 2013 38 293 35 45
July 2013 46 253 28 37
June 2013 26 213 86 31
May 2013 51 348 42 165
April 2013 57 539 51 88
2013-04-01 2 14 5 23
2013-04-02 5 26 2 23
2013-04-03 3 30 0 20
2013-04-04 1 22 0 17
2013-04-05 2 39 3 25
2013-04-06 1 18 0 29
2013-04-07 4 29 3 34
2013-04-08 2 26 0 23
2013-04-09 3 23 1 22
2013-04-10 5 30 1 38
2013-04-11 3 24 3 49
2013-04-12 3 22 1 25
2013-04-13 2 14 6 88
2013-04-14 1 13 3 34
2013-04-15 5 38 1 23
2013-04-16 1 14 1 25
2013-04-17 1 12 3 22
2013-04-18 2 16 1 33
2013-04-19 0 13 0 30
2013-04-20 1 15 0 25
2013-04-21 1 12 0 23
2013-04-22 0 4 3 21
2013-04-23 0 15 1 20
2013-04-24 1 9 2 21
2013-04-25 1 9 0 20
2013-04-26 1 14 3 22
2013-04-27 1 8 3 17
2013-04-28 3 15 1 19
2013-04-29 1 11 2 17
2013-04-30 1 4 2 19
March 2013 69 744 58 64
February 2013 110 1403 91 51
January 2013 138 1639 113 49
2013-01-01 5 28 2 30
2013-01-02 2 17 4 31
2013-01-03 6 60 3 32
2013-01-04 4 31 1 27
2013-01-05 4 27 1 31
2013-01-06 4 59 4 31
2013-01-07 6 56 4 33
2013-01-08 5 62 4 39
2013-01-09 3 31 1 25
2013-01-10 4 27 5 27
2013-01-11 6 40 1 24
2013-01-12 2 35 5 25
2013-01-13 2 31 6 39
2013-01-14 3 44 4 37
2013-01-15 7 73 6 29
2013-01-16 4 56 2 34
2013-01-17 2 39 3 31
2013-01-18 5 23 1 28
2013-01-19 2 31 4 37
2013-01-20 6 65 3 26
2013-01-21 2 50 4 35
2013-01-22 9 79 6 36
2013-01-23 6 111 4 38
2013-01-24 4 109 5 33
2013-01-25 2 43 4 49
2013-01-26 6 90 4 26
2013-01-27 4 60 5 32
2013-01-28 8 82 5 46
2013-01-29 5 60 4 33
2013-01-30 7 53 5 32
2013-01-31 3 67 3 25
* 2012 1863 11381 918 70
December 2012 111 1080 102 49
November 2012 921 2147 195 53
October 2012 121 978 101 53
September 2012 78 716 61 34
August 2012 61 404 41 29
July 2012 28 203 25 31
June 2012 19 136 16 19
2012-06-01 1 6 0 16
2012-06-02 0 3 0 13
2012-06-03 2 8 1 15
2012-06-04 0 9 0 17
2012-06-05 0 4 1 16
2012-06-06 0 2 0 19
2012-06-07 2 9 3 14
2012-06-08 0 8 0 15
2012-06-09 1 7 0 15
2012-06-10 1 6 1 13
2012-06-11 1 5 1 13
2012-06-12 1 9 0 16
2012-06-13 0 9 0 17
2012-06-14 1 1 0 15
2012-06-15 1 4 0 16
2012-06-16 0 1 0 13
2012-06-17 1 4 2 16
2012-06-18 0 2 0 12
2012-06-19 0 0 0 12
2012-06-20 0 2 2 13
2012-06-21 2 5 0 13
2012-06-22 0 1 0 12
2012-06-23 0 6 0 12
2012-06-24 0 0 2 13
2012-06-25 0 2 0 16
2012-06-26 0 8 1 12
2012-06-27 3 7 1 16
2012-06-28 1 3 0 15
2012-06-29 0 2 1 17
2012-06-30 1 3 0 14
May 2012 27 234 33 44
April 2012 43 355 51 35
March 2012 74 858 44 26
February 2012 146 1674 88 50
January 2012 234 2596 161 70
* 2011 741 7884 698 76
December 2011 113 1639 94 66
November 2011 141 1631 98 66
October 2011 123 1155 91 76
2011-10-01 3 21 3 38
2011-10-02 4 31 3 28
2011-10-03 5 51 3 33
2011-10-04 1 43 2 32
2011-10-05 7 51 3 32
2011-10-06 3 35 2 36
2011-10-07 2 30 2 33
2011-10-08 1 36 0 32
2011-10-09 3 28 1 38
2011-10-10 3 31 3 31
2011-10-11 0 5 5 34
2011-10-12 0 10 2 54
2011-10-13 6 40 5 29
2011-10-14 4 56 0 55
2011-10-15 2 29 2 27
2011-10-16 4 22 1 43
2011-10-17 3 42 4 39
2011-10-18 3 23 3 45
2011-10-19 6 64 7 41
2011-10-20 5 50 5 67
2011-10-21 8 59 6 49
2011-10-22 4 45 2 38
2011-10-23 4 40 1 76
2011-10-24 2 33 1 43
2011-10-25 5 24 3 38
2011-10-26 5 38 4 43
2011-10-27 5 39 3 46
2011-10-28 16 79 9 45
2011-10-29 5 38 1 45
2011-10-30 2 20 1 47
2011-10-31 2 42 4 46
September 2011 65 726 51 39
August 2011 54 368 42 32
July 2011 25 163 21 41
June 2011 11 83 28 40
May 2011 34 276 34 37
April 2011 49 489 37 32
March 2011 30 310 47 29
February 2011 38 407 65 31
January 2011 58 637 90 32
* 2010 444 2717 284 98
* 2009 217 1823 163 20
* 2008 119 553 148 28